Probability
0 0 0 0 0 0 0 2 5 10 14 17 20 21 20 23 30 36 37 34 32 30 29 30 30 29 30 33 36 35 35 37 39 37 36 33 26 22 20 18 17 14 11 9
0 0 0 0 0 1 2 4 8 12 16 20 24 23 20 21 28 34 36 33 32 32 31 30 29 29 30 32 34 35 35 35 34 34 35 33 30 27 24 21 18 17 15 13
0 0 0 0 1 2 4 7 9 13 20 25 27 25 21 20 25 30 33 32 32 32 30 27 27 28 30 30 31 33 34 32 30 32 34 33 32 31 28 24 20 19 18 17
0 0 0 1 3 4 6 9 11 15 22 27 28 27 23 21 23 27 30 31 30 30 28 25 25 27 29 28 29 32 32 30 31 33 33 32 32 32 30 27 24 23 21 20
0 0 1 3 5 7 9 14 19 22 25 29 31 30 26 22 24 28 29 29 27 26 26 25 24 26 27 28 29 31 31 31 32 34 34 33 32 31 31 30 28 27 25 22
0 0 1 5 8 9 12 18 24 27 30 33 34 31 25 23 25 26 25 24 23 22 22 22 21 23 25 26 26 27 29 31 31 31 32 31 30 29 30 29 28 27 25 22
0 1 3 7 10 11 12 16 21 27 31 32 32 28 25 25 26 23 20 19 18 17 17 17 17 19 22 24 23 23 25 27 25 24 25 25 24 24 25 25 23 23 22 19
1 2 4 8 11 11 11 13 17 23 27 29 30 28 28 27 25 21 17 16 14 13 13 13 13 15 19 20 20 20 21 20 19 17 16 16 16 18 20 20 19 19 18 18
4 5 6 8 8 8 10 13 16 20 24 28 29 28 27 25 21 18 16 14 12 11 11 12 12 14 16 17 17 17 16 15 14 13 11 11 12 13 14 15 14 14 14 14
7 9 10 9 9 9 11 15 18 20 24 26 26 24 22 18 14 13 14 12 10 10 10 10 11 12 13 13 14 14 13 13 12 11 10 9 9 10 11 11 10 9 10 10
9 9 10 11 11 12 14 17 18 19 20 21 20 18 15 11 8 8 9 9 9 9 8 7 7 9 10 10 11 12 12 12 12 10 9 8 8 8 9 9 8 7 7 7
7 8 9 9 10 11 13 14 14 14 14 15 15 13 10 8 6 6 6 6 6 7 6 4 4 6 7 8 10 11 12 13 12 9 8 8 8 7 7 8 7 6 5 5
7 7 7 8 9 9 10 10 11 11 11 11 11 11 9 7 6 5 4 4 4 4 4 3 3 5 6 7 9 10 11 12 11 9 7 7 7 7 7 6 5 3 2 2
6 5 6 7 8 9 9 9 9 10 10 10 10 11 9 6 4 3 3 2 2 2 2 3 3 5 6 7 8 9 10 11 10 9 8 7 6 6 6 6 5 3 1 0
5 5 6 7 8 10 11 10 10 10 9 9 9 9 6 3 1 1 1 1 1 0 1 1 2 3 5 7 8 8 9 9 9 9 8 7 6 6 6 6 6 4 2 0
5 6 6 6 8 10 11 10 9 8 7 6 6 5 3 1 0 0 0 0 0 0 0 0 1 1 2 5 7 7 7 8 8 8 7 7 6 6 6 7 7 6 4 1
7 7 7 7 9 10 10 9 8 5 4 2 2 2 2 1 0 0 0 0 0 0 0 0 0 0 0 2 5 6 6 7 7 6 6 6 6 6 5 5 7 7 4 3
7 7 7 8 9 9 9 7 5 2 1 0 1 2 2 2 1 0 0 0 0 0 0 0 0 0 0 1 3 4 5 5 6 5 5 5 4 4 3 2 3 4 3 3
7 6 6 7 7 6 5 4 2 1 0 1 1 2 3 2 1 1 1 1 0 0 0 0 0 0 0 0 1 2 3 4 5 4 4 4 4 3 1 0 0 1 2 1
5 5 4 5 5 3 2 1 0 0 1 2 3 3 2 2 2 1 1 0 0 0 0 0 0 0 0 0 0 2 3 3 3 3 3 3 3 2 1 0 0 0 1 1
5 4 3 3 2 1 0 0 0 1 2 2 3 3 2 2 1 1 0 0 0 0 0 0 0 0 0 0 0 1 2 2 2 2 1 1 1 1 0 0 0 0 0 1
5 4 3 1 0 0 0 0 1 2 2 1 2 2 1 1 0 0 0 0 0 0 0 0 0 0 0 0 0 0 1 1 1 1 0 0 0 0 0 0 0 0 0 1
3 3 2 1 0 0 0 0 1 2 1 1 1 1 0 0 0 0 0 0 0 0 0 0 0 0 0 0 0 0 0 0 1 0 0 0 0 0 0 0 0 0 0 0
2 1 1 0 0 0 0 0 0 1 1 0 0 0 0 0 0 0 0 0 0 0 0 0 0 0 0 0 0 0 0 0 0 0 0 0 0 0 0 0 0 0 0 0
1 0 0 0 0 0 0 0 0 0 0 0 0 0 0 0 0 0 0 0 0 0 0 0 0 0 0 0 0 0 0 0 0 0 0 0 0 0 0 0 0 0 0 0
0 0 0 0 0 0 0 0 0 0 0 0 0 0 0 0 0 0 0 0 0 0 0 0 0 0 0 0 0 0 0 0 0 0 0 0 0 0 0 0 0 0 0 0
0 0 0 0 0 0 0 0 0 0 0 0 0 0 0 0 0 0 0 0 0 0 0 0 0 0 0 0 0 0 0 0 0 0 0 0 0 0 0 0 0 0 0 0
Wind_Speed
5 5 2 3 4 3 3 6 7 7 7 8 6 7 6 6 7 8 6 5 4 3 3 4 5 5 5 6 5 6 5 5 5 5 5 5 4 4 4 4 5 4 3 3
2 1 2 4 6 3 2 4 5 5 4 5 5 5 6 6 7 7 6 5 4 3 3 4 5 5 5 5 5 5 6 5 4 4 4 4 4 4 4 4 3 3 3 3
3 3 3 5 5 3 1 2 6 6 6 6 6 7 8 7 6 6 5 5 4 4 4 4 4 5 4 5 5 5 5 4 3 3 3 3 3 3 4 4 3 3 4 4
1 2 3 7 4 1 3 0 2 5 8 10 8 6 4 5 6 6 5 3 3 4 4 3 3 3 3 3 4 5 4 4 4 3 4 3 3 4 4 4 4 4 4 4
3 3 4 4 3 1 2 1 1 8 9 9 8 8 3 2 4 5 5 4 4 4 4 4 4 4 4 4 4 4 3 3 3 4 4 3 3 4 3 3 3 3 4 4
3 3 5 5 4 1 5 1 1 8 11 9 8 5 3 2 4 5 5 4 4 4 5 5 3 4 5 4 4 3 2 2 2 3 3 4 4 4 3 3 4 3 4 4
3 3 5 5 5 2 4 6 4 6 9 7 5 6 5 5 5 5 4 4 4 5 4 3 3 4 4 4 2 1 1 1 1 1 2 2 2 3 3 3 3 3 3 3
2 2 5 4 2 2 5 3 4 5 7 7 7 6 6 6 5 5 4 4 4 5 3 2 3 4 3 2 1 1 1 1 0 0 1 1 1 1 2 3 2 2 2 2
5 5 5 1 2 2 4 5 3 4 6 9 9 7 7 6 5 4 4 3 3 4 3 2 2 3 3 1 1 2 1 1 0 1 1 1 2 2 1 2 3 2 2 2
1 1 0 2 3 4 4 5 5 7 9 9 9 8 6 6 5 4 3 3 3 4 4 2 1 2 1 1 1 2 1 1 1 1 1 1 0 1 2 2 2 2 2 2
1 1 3 3 2 4 5 6 7 8 8 8 9 8 6 5 4 4 3 3 3 3 3 2 1 1 0 1 1 1 1 1 1 1 1 0 1 1 2 3 3 3 3 3
5 6 4 3 2 5 7 6 7 9 7 6 7 7 6 4 3 3 3 3 3 3 3 1 1 1 0 0 1 2 1 1 1 1 0 1 0 1 2 2 3 4 5 4
4 4 4 4 3 6 6 6 7 8 8 6 5 6 5 4 3 3 3 3 3 3 2 1 1 1 1 1 0 1 2 1 1 1 0 1 1 1 2 3 2 2 3 4
4 5 5 4 4 6 8 8 8 8 6 6 5 5 5 4 4 4 3 2 2 3 2 2 1 1 2 1 0 0 1 1 1 1 1 1 1 1 1 1 2 3 3 3
3 4 5 5 5 6 6 8 8 6 5 4 4 5 5 4 4 3 2 3 3 3 2 1 1 1 2 1 1 1 1 1 1 1 1 1 1 1 1 1 1 2 2 3
4 5 6 7 6 5 6 7 6 5 4 4 4 4 4 4 4 3 2 3 3 2 1 1 1 2 1 0 0 1 1 1 1 0 0 1 1 0 0 1 1 1 2 2
6 5 6 5 5 5 5 5 5 5 4 4 4 4 4 4 3 2 2 1 2 1 1 1 1 2 1 0 0 0 1 1 1 0 1 1 1 1 1 1 1 1 2 3
5 5 6 7 6 5 5 5 4 4 4 4 4 4 4 4 3 2 1 1 1 1 1 1 1 1 1 1 0 1 1 1 0 1 1 1 1 1 1 1 1 2 2 2
6 6 6 6 5 6 5 4 4 3 3 4 5 4 3 3 2 2 1 2 1 0 2 2 2 1 1 2 2 1 1 1 1 1 1 1 1 1 1 1 1 1 1 1
6 6 6 6 5 5 5 4 4 4 3 4 4 4 3 2 2 2 2 1 2 3 3 2 1 1 2 2 1 0 0 1 1 1 0 0 1 1 1 1 1 1 1 1
5 5 6 5 4 4 4 4 4 4 4 4 5 5 4 3 2 2 2 1 3 2 1 1 1 1 1 1 0 0 0 1 1 0 0 1 1 1 1 1 1 1 1 1
4 4 5 5 4 3 2 3 4 4 4 4 4 4 4 3 2 1 1 2 2 1 1 1 1 1 0 0 1 0 0 0 0 1 0 0 0 0 1 1 1 1 1 1
3 3 4 4 3 3 2 2 3 3 4 4 4 4 3 3 2 2 1 2 1 1 0 1 1 2 1 1 1 0 1 1 1 1 0 0 1 0 0 1 1 1 0 0
3 3 3 3 3 3 2 2 2 2 3 3 3 4 3 2 1 1 1 2 2 1 0 1 1 1 0 0 0 0 0 0 0 1 1 0 0 0 0 0 0 0 0 0
3 3 4 4 3 2 2 3 3 3 3 2 2 2 2 3 3 1 1 1 1 1 0 0 1 1 1 0 0 0 1 1 1 1 0 0 0 0 0 0 0 0 0 0
3 3 3 3 3 2 2 3 2 2 2 2 1 1 1 2 2 2 1 1 1 1 0 0 1 1 0 0 0 1 1 1 1 1 1 0 0 0 0 1 1 0 0 0
3 2 2 2 1 1 2 3 3 2 3 3 2 1 2 2 2 2 1 1 0 0 0 0 0 0 0 0 0 0 0 1 1 0 0 0 0 0 0 1 1 1 1 1
Wind_Direction
223 234 238 273 289 282 194 184 177 197 182 201 188 160 151 142 130 119 113 110 123 141 144 143 146 153 158 157 165 165 166 176 187 188 184 180 181 186 189 190 196 197 194 207
287 297 338 319 307 284 209 170 154 143 185 203 163 139 137 136 127 124 121 124 142 150 141 139 144 150 153 159 166 163 170 182 185 176 174 179 183 183 185 192 195 190 196 199
261 288 358 304 285 253 226 194 156 174 196 155 142 155 158 153 136 133 133 142 153 147 149 148 149 150 157 169 162 161 174 175 176 176 178 188 186 182 194 201 197 200 207 201
189 66 221 246 273 179 140 177 153 145 153 154 154 141 128 133 133 137 132 134 134 124 118 117 117 119 123 120 139 152 165 170 176 180 188 191 194 201 205 204 203 207 213 208
142 170 251 277 288 241 137 360 92 132 138 133 114 85 61 102 128 132 134 141 130 118 109 101 103 110 107 101 105 122 141 155 168 167 178 182 193 214 216 209 212 219 218 212
141 154 217 245 275 260 94 52 316 130 136 140 123 121 206 168 116 105 97 106 112 110 100 95 93 101 106 108 104 113 134 158 159 167 181 190 199 218 217 207 214 219 227 216
158 188 245 262 293 56 136 206 210 144 140 139 140 165 169 132 102 101 99 99 98 100 95 102 107 100 107 111 126 170 149 139 149 168 184 188 202 211 206 203 202 213 215 221
143 171 238 289 10 143 194 176 146 134 136 129 120 116 116 114 111 108 101 98 101 101 97 102 108 107 111 141 185 162 138 125 83 264 233 166 186 225 212 190 192 208 214 237
174 207 244 258 133 138 127 122 124 118 124 126 117 115 115 114 115 112 109 103 100 111 100 76 96 124 131 185 161 134 114 87 23 299 266 203 193 203 219 207 197 209 214 234
85 266 341 57 85 84 98 117 122 119 124 125 124 126 126 128 131 130 124 119 113 112 107 81 64 106 140 177 151 137 141 156 212 235 313 325 273 214 212 217 211 214 230 238
126 244 41 29 94 111 103 105 101 108 114 127 128 130 133 132 136 138 132 131 126 128 126 122 74 69 86 176 132 135 157 186 218 208 198 223 325 273 243 225 206 202 232 227
209 215 174 206 177 126 116 109 114 111 98 105 121 124 123 128 132 130 132 130 123 121 122 126 99 57 331 67 144 155 172 211 234 239 219 140 136 328 331 275 247 229 226 224
183 177 154 153 126 122 117 113 108 106 109 105 107 118 116 118 116 111 112 115 126 136 133 117 90 348 298 290 111 155 183 216 240 255 234 189 209 251 302 326 338 301 263 246
133 114 100 103 117 117 116 111 104 100 103 106 115 117 116 113 105 102 108 117 123 119 111 104 95 299 292 298 355 286 200 209 220 229 219 218 228 235 246 274 311 317 305 282
131 131 136 128 116 115 115 112 108 108 107 99 102 114 118 118 116 114 114 110 100 94 92 97 83 295 293 329 359 302 256 247 246 233 225 229 231 224 242 266 281 296 314 315
128 116 121 125 133 136 126 122 122 126 124 115 105 115 125 124 119 113 109 110 106 107 110 96 302 287 297 351 19 338 309 305 299 258 243 253 232 183 241 266 280 290 290 285
130 136 137 133 137 134 134 138 141 145 138 131 132 131 119 109 101 87 82 100 126 144 148 168 274 294 324 36 128 275 297 304 308 300 224 234 238 238 245 243 251 267 273 269
139 150 148 142 139 128 124 127 132 140 148 148 135 126 123 125 134 145 149 99 76 48 348 255 263 301 333 353 305 246 247 276 296 265 249 245 257 257 247 245 248 262 284 295
112 115 114 117 123 124 125 128 127 123 121 122 127 137 147 149 152 159 125 103 103 315 286 278 289 312 314 302 299 261 263 277 294 298 275 271 295 288 265 249 250 259 268 281
102 106 106 103 103 113 123 130 129 122 120 124 127 131 140 156 154 148 127 136 220 229 244 267 292 297 284 287 302 253 292 285 262 269 276 280 300 288 268 261 263 274 280 274
104 110 111 108 101 102 118 134 136 139 140 140 141 149 162 170 165 153 141 213 277 267 262 269 269 262 266 292 341 96 324 330 302 295 336 333 330 321 316 321 313 301 287 273
113 121 122 120 118 117 122 130 137 144 144 146 150 150 149 155 152 143 175 202 234 250 248 271 279 280 17 39 62 47 9 12 329 330 2 314 338 14 353 343 325 321 323 322
123 133 133 134 141 142 138 134 138 142 149 159 160 161 164 171 162 154 204 249 219 201 203 288 331 359 25 70 72 70 36 27 3 344 307 234 191 186 282 308 325 8 32 347
126 131 134 135 128 122 135 156 144 143 148 155 166 169 159 143 114 202 192 186 169 157 147 302 336 327 307 101 93 131 301 331 324 320 314 286 276 250 234 233 207 322 322 308
122 116 116 114 116 134 152 142 115 106 118 126 142 153 149 145 150 180 169 154 156 159 192 301 338 337 359 51 150 226 233 243 252 261 260 267 280 259 245 13 102 45 340 335
124 130 134 141 148 151 148 137 131 132 125 116 110 118 122 125 134 144 151 159 155 133 126 316 346 350 339 285 258 225 226 246 266 260 255 244 287 63 88 82 68 80 185 220
105 103 100 90 89 126 137 136 137 143 143 139 138 138 127 120 119 123 123 119 115 97 43 330 242 216 269 295 278 272 248 236 232 245 51 86 95 157 193 186 196 207 211 214